TimeCST,TemperatureF,Dew PointF,Humidity,Sea Level PressureIn,VisibilityMPH,Wind Direction,Wind SpeedMPH,Gust SpeedMPH,PrecipitationIn,Events,Conditions,WindDirDegrees,DateUTC
12:51 AM,33.8,21.2,60,30.15,10.0,SSE,3.5,-,N/A,,Overcast,150,2013-01-08 06:51:00
1:51 AM,34.0,23.0,64,30.18,10.0,SSE,3.5,-,N/A,,Overcast,160,2013-01-08 07:51:00
2:51 AM,30.9,21.9,69,30.19,10.0,Calm,Calm,-,N/A,,Mostly Cloudy,0,2013-01-08 08:51:00
3:51 AM,30.9,21.9,69,30.19,10.0,Calm,Calm,-,N/A,,Scattered Clouds,0,2013-01-08 09:51:00
4:51 AM,28.9,21.0,72,30.20,9.0,Calm,Calm,-,N/A,,Scattered Clouds,0,2013-01-08 10:51:00
5:51 AM,28.9,21.9,75,30.21,9.0,Calm,Calm,-,N/A,,Mostly Cloudy,0,2013-01-08 11:51:00
6:51 AM,30.9,24.1,76,30.21,9.0,ESE,3.5,-,N/A,,Mostly Cloudy,120,2013-01-08 12:51:00
7:51 AM,33.1,24.1,70,30.22,8.0,SSE,3.5,-,N/A,,Mostly Cloudy,160,2013-01-08 13:51:00
8:51 AM,37.0,25.0,62,30.24,8.0,South,5.8,-,N/A,,Mostly Cloudy,170,2013-01-08 14:51:00
9:51 AM,42.8,24.8,49,30.20,9.0,Variable,5.8,-,N/A,,Mostly Cloudy,0,2013-01-08 15:51:00
10:51 AM,46.9,25.0,42,30.20,10.0,SSE,6.9,-,N/A,,Scattered Clouds,160,2013-01-08 16:51:00
11:51 AM,50.0,23.0,35,30.17,10.0,South,6.9,-,N/A,,Scattered Clouds,170,2013-01-08 17:51:00
12:51 PM,52.0,24.1,34,30.15,10.0,SSE,6.9,-,N/A,,Scattered Clouds,160,2013-01-08 18:51:00
1:51 PM,54.0,23.0,30,30.13,10.0,SSE,8.1,-,N/A,,Scattered Clouds,150,2013-01-08 19:51:00
2:51 PM,54.0,25.0,33,30.12,10.0,SE,8.1,-,N/A,,Scattered Clouds,140,2013-01-08 20:51:00
3:51 PM,52.0,28.0,40,30.12,10.0,SE,16.1,-,N/A,,Scattered Clouds,140,2013-01-08 21:51:00
4:51 PM,48.0,30.0,50,30.13,10.0,SE,11.5,-,N/A,,Scattered Clouds,130,2013-01-08 22:51:00
5:51 PM,48.9,28.9,46,30.13,10.0,SE,12.7,-,N/A,,Mostly Cloudy,140,2013-01-08 23:51:00
6:51 PM,48.9,28.0,44,30.14,10.0,SSE,10.4,-,N/A,,Mostly Cloudy,160,2013-01-09 00:51:00
7:51 PM,48.0,28.9,48,30.15,10.0,South,10.4,-,N/A,,Mostly Cloudy,170,2013-01-09 01:51:00
8:51 PM,48.9,30.0,48,30.15,10.0,South,6.9,-,N/A,,Mostly Cloudy,170,2013-01-09 02:51:00
9:51 PM,46.9,30.9,54,30.16,10.0,South,6.9,-,N/A,,Mostly Cloudy,180,2013-01-09 03:51:00
10:51 PM,50.0,33.1,52,30.15,10.0,SSW,8.1,-,N/A,,Mostly Cloudy,210,2013-01-09 04:51:00
11:51 PM,50.0,34.0,54,30.18,10.0,SW,8.1,-,N/A,,Overcast,220,2013-01-09 05:51:00